Location: *
(23.5860°S, 65.4036°W)
Time: 09:01:05
(UTC+00:00)

Centaur AC-64 - Pass Details

Date: 25 August 2019
Orbit: 312 x 25759 km, 23.3° (Epoch: 14 September)

Event Time Altitude Azimuth Distance (km) Brightness Sun altitude
Rises 22:53:09 0° 275° (W) 6,374 10.0 -10.9°
Reaches altitude 10° 22:59:26 10° 274° (W) 3,420 7.9 -12.3°
Maximum altitude 23:05:42 86° 2° (N) 510 2.1 -13.8°
Enters shadow 23:06:59 28° 90° (E) 802 2.6 -14.0°
